Regional Weather Roundup
Issued by NWS

Home | Current Version | Previous Version | Text Only | Print | Product List | Glossary Off
Versions: 1 2 3 4 5 6 7 8 9 10 11 12 13 14 15 16 17 18 19 20 21 22 23 24 25 26 27 28 29 30 31 32 33 34 35 36 37 38 39 40 41 42 43 44 45 46 47 48 49 50

000
ASUS43 KDTX 010110
RWRMI
MICHIGAN HOURLY REGIONAL WEATHER ROUNDUP
NATIONAL WEATHER SERVICE DETROIT/PONTIAC MI
900 PM EDT FRI SEP 30 2016

NOTE: "FAIR" INDICATES FEW OR NO CLOUDS BELOW 12,000 FEET WITH NO
SIGNIFICANT WEATHER AND/OR OBSTRUCTION TO VISIBILITY.

MIZ047>049-052>055-059>063-066>070-074>076-081>083-010200-
SOUTHEAST LOWER MICHIGAN

CITY           SKY/WX    TMP DP  RH WIND       PRES   REMARKS
ADRIAN         CLOUDY    60  60 100 E9        30.09R
ALMA           DRIZZLE   61  61 100 NE6G18    30.14F
ANN ARBOR      CLOUDY    61  60  97 NE5       30.10S
BAD AXE        DRIZZLE   58  56  93 E6        30.20R
CARO           RAIN      59  58  98 E9        30.16S
DETROIT CITY   LGT RAIN  59  59 100 E12       30.12R
DETROIT        LGT RAIN  61  61 100 NE6       30.11F
FLINT          LGT RAIN  60  58  92 E15       30.13R FOG
GROSSE ILE     CLOUDY    62  60  94 E5        30.09S
HILLSDALE      CLOUDY    59  55  88 NE7       30.08R
HOWELL         DRIZZLE   59  59  97 E5        30.12R

CITY           SKY/WX    TMP DP  RH WIND       PRES   REMARKS
JACKSON        CLOUDY    59  59 100 NE6       30.10R
LAMBERTVILLE   HVY RAIN  62  60  94 E5        30.09R
LANSING        CLOUDY    59  57  93 E7        30.13S
LAPEER         RAIN      58  57  96 E6G16     30.15S
MASON          CLOUDY    59  58  96 E5        30.12R
MONROE         CLOUDY    62  62  99 S5        30.08S
MT. CLEMENS    LGT RAIN  58  57  95 E15       30.11R
PONTIAC        RAIN      59  57  93 E9        30.12R FOG
PORT HURON     LGT RAIN  55  55 100 NE9       30.15S
TRI CITIES     LGT RAIN  61  60  97 E10       30.17R FOG
MIDLAND        RAIN      60  59  97 NE12G20   30.16S
TROY           LGT RAIN  60  57  91 NE12      30.15R
SAGINAW HB     LGT RAIN  59  59 100 E12       30.15S
$$
MIZ043>046-050>051-056>058-064>065-071>073-077>080-010200-
SOUTHWEST LOWER MICHIGAN

CITY           SKY/WX    TMP DP  RH WIND       PRES   REMARKS
BATTLE CREEK   CLOUDY    59  58  96 NE5       30.10F
BENTON HARBOR  CLOUDY    61  57  87 VRB7      30.07F
BIG RAPIDS     LGT RAIN  60  59  96 NE7       30.15S
COLDWATER      LGT RAIN  59  59  99 NE16      30.06F
FREMONT        CLOUDY    59  58  97 E7        30.13F
HOLLAND        LGT RAIN  60  57  89 E8        30.11S
GRAND RAPIDS   LGT RAIN  59  57  93 NE9       30.10F
IONIA          RAIN      58  57  97 NE14      30.10F
KALAMAZOO      LGT RAIN  60  56  86 NE8       30.08F
LUDINGTON      DRIZZLE   59  59 100 NE5       30.15S
MARSHALL       CLOUDY    58  58  98 CALM      30.09S
MOUNT PLEASANT DRIZZLE   60  59  97 NE8       30.15F
MUSKEGON       LGT RAIN  60  58  92 NE8       30.12F
SOUTH HAVEN    LGT RAIN  61  59  94 NE5       30.08F
$$
MIZ016>042-010200-
NORTHERN LOWER MICHIGAN

CITY           SKY/WX    TMP DP  RH WIND       PRES   REMARKS
ALPENA         CLOUDY    62  54  74 NE12      30.26F
BEAVER ISLAND  PTCLDY    62  55  77 E13       30.26S
BELLAIRE       CLOUDY    62  52  69 NE8       30.22S
CADILLAC       LGT RAIN  58  56  94 E9        30.18R
CHARLEVOIX     CLOUDY    62  53  71 E17       30.26S
FRANKFORT      LGT RAIN  63  57  81 CALM      30.18S
GAYLORD        MOCLDY    59  50  72 E9        30.24F
GRAYLING       CLOUDY    59  54  82 NE14G21   30.23S
HARBOR SPRINGS PTCLDY    60  55  83 E12G18    30.25S
HOUGHTON LAKE  CLOUDY    59  53  80 NE15      30.21S
MANISTEE       LGT RAIN  61  59  93 NE9       30.15F
OSCODA         CLOUDY    63  53  71 E14G24    30.21S
PELLSTON       PTCLDY    61  51  70 NE9       30.27F
ROGERS CITY    CLOUDY    61  55  79 E7        30.28F
TRAVERSE CITY  LGT RAIN  62  56  80 E5        30.19S
$$
MIZ007>008-015-010200-
EASTERN UPPER MICHIGAN

CITY           SKY/WX    TMP DP  RH WIND       PRES   REMARKS
KINROSS        CLOUDY    60  52  74 E9        30.29F
MACKINAC ISLAN PTCLDY    61  53  76 E7        30.28S
NEWBERRY       CLOUDY    59  53  80 NE7       30.28F
S. S. MARIE    PTCLDY    61  50  67 E3        30.29F
MUNISING         N/A     62  54  74 NE6       30.28F
$$
MIZ004>006-011>014-085-010200-
CENTRAL UPPER MICHIGAN

CITY           SKY/WX    TMP DP  RH WIND       PRES   REMARKS
MANISTIQUE     CLOUDY    63  49  61 NE7       30.26F
ESCANABA       CLOUDY    64  51  62 NE8       30.25F
MENOMINEE      CLOUDY    63  55  75 E14G22    30.23S
SAWYER-GWINN   CLOUDY    55  54  94 N7        30.30S
$$
MIZ001>003-009>011-084-010200-
WESTERN UPPER MICHIGAN

CITY           SKY/WX    TMP DP  RH WIND       PRES   REMARKS
IRON MOUNTAIN  PTCLDY    58  49  72 NE9       30.26F
HOUGHTON       CLEAR     56  48  74 E7        30.31F
COPPER HARBOR    N/A     55  54  96 CALM      30.32F
IRONWOOD       CLOUDY    55  55 100 NE3       30.30F FOG
$$

ABBREVIATIONS USED IN REMARKS
   TC - TEMPERATURE IN CELSIUS
  WCI - WIND CHILL INDEX
   HX - HEAT INDEX
  VSB - VISIBILITY




USA.gov is the U.S. government's official web portal to all federal, state and local government web resources and services.